Skip Page Navigation
NASA JPL Caltech
NASA Logo - Jet Propulsion Laboratory + View the NASA Portal
+ Near-Earth Object (NEO) Program
Search JPL
JPL Home Earth Solar System Stars & Galaxies Technology
JPL Solar System Dynamics
BODIES ORBITS EPHEMERIDES TOOLS PHYSICAL DATA DISCOVERY FAQ SITE MAP
JPL Small-Body Database Browser
Search: [ help ]  
(2002 NE71)
Classification: Apollo [NEO, PHA]          SPK-ID: 3484142
Ephemeris | Orbit Diagram | Orbital Elements | Physical Parameters | Close-Approach Data ]

[ hide orbit diagram ]
Orbit Diagram
Note: Make sure you have Java enabled on your browser to see the applet. This applet is provided as a 3D orbit visualization tool. The applet was implemented using 2-body methods, and hence should not be used for determining accurate long-term trajectories (over several years or decades) or planetary encounter circumstances. For accurate long-term ephemerides, please instead use our Horizons system.
Orbit Viewer

Additional Notes: the orbits shown in the applet are color coded. The planets are white lines, and the asteroid/comet is a blue line. The bright white line indicates the portion of the orbit that is above the ecliptic plane, and the darker portion is below the ecliptic plane. Likewise for the asteroid/comet orbit, the light blue indicates the portion above the ecliptic plane, and the dark blue the portion below the ecliptic plane.

Orbit Viewer applet originally written and kindly provided by Osamu Ajiki (AstroArts), and further modified by Ron Baalke (JPL).


Orbital Elements at Epoch 2456400.5 (2013-Apr-18.0) TDB
Reference: JPL 34 (heliocentric ecliptic J2000)
 Element Value Uncertainty (1-sigma)   Units 
e .5844351455772082 3.6855e-07  
a 1.915095966930656 2.8773e-08 AU
q .7958465767032137 7.1638e-07 AU
i 7.178930073735393 1.7308e-05 deg
node 264.6793271723778 0.00014761 deg
peri 144.0124759133732 0.00018326 deg
M 338.7716745009016 5.9658e-06 deg
tp 2456457.581775974465
(2013-Jun-14.08177597)
1.5402e-05 JED
period 968.0197974955702
2.65
2.1816e-05
5.973e-08
d
yr
n .371893220501668 8.3811e-09 deg/d
Q 3.034345357158098 4.5589e-08 AU
  Orbit Determination Parameters
   # obs. used (total)      214  
   data-arc span      2994 days (8.20 yr)  
   first obs. used      2002-06-24  
   last obs. used      2010-09-04  
   planetary ephem.      DE405  
   SB-pert. ephem.      SB405-CPV-2  
   condition code      0  
   fit RMS      .40288  
   data source      ORB  
   producer      Otto Matic  
   solution date      2011-Sep-14 19:46:37  

Additional Information
 Earth MOID = .04984 AU 
 T_jup = 3.694 
[ show covariance matrix ]

Ephemeris | Orbit Diagram | Orbital Elements | Physical Parameters | Close-Approach Data ]

Physical Parameter Table
Parameter Symbol Value Units Sigma Reference Notes
absolute magnitude H 19.247 mag .40424 34 autocmod 2.5a

[ show close-approach data ]
Ephemeris | Orbit Diagram | Orbital Elements | Physical Parameters | Close-Approach Data ]
ABOUT SSD CREDITS/AWARDS PRIVACY/COPYRIGHT GLOSSARY LINKS
FirstGov 2013-May-22 20:29 UT
(server date/time)  
NASA Home Page
Site Manager:   Donald K. Yeomans
Webmaster  Alan B. Chamberlin